Location: Buchberg
(46.9333°N, 15.8500°E)
Time: 19:44:23
(UTC+00:00)

CZ-2D R/B - Pass Details

Date: 14 July 2020
Orbit: 792 x 845 km, 98.7° (Epoch: 05 August)

Event Time Altitude Azimuth Distance (km) Brightness Sun altitude
Rises 00:38:28 0° 14° (NNE) 3,347 6.9 -18.1°
Reaches altitude 10° 00:40:48 10° 16° (NNE) 2,418 5.8 -17.9°
Maximum altitude 00:46:10 82° 104° (ESE) 838 2.1 -17.6°
Enters shadow 00:49:08 28° 190° (S) 1,509 3.0 -17.3°
